Temperature
25 23 24 24 25 26 25 25 24 25 25 24 24 23 23 23 23 22 22 22 22 23 23 23 22 22 22 21 21 21 20 20 20 20 19 19 19 19 19 19 18 18 18 18
24 24 25 25 25 25 25 25 24 25 25 25 23 23 23 22 22 23 22 22 22 23 23 23 22 22 22 22 21 21 21 20 20 20 19 19 19 19 19 19 18 18 18 18
25 25 26 26 26 25 25 24 25 24 24 24 24 24 23 23 23 23 23 23 23 23 23 23 23 23 22 22 22 21 21 21 20 20 19 19 19 19 19 19 19 19 18 18
25 25 26 26 26 25 25 25 25 24 23 22 24 22 23 22 22 22 23 23 23 24 24 24 23 23 23 23 22 22 22 21 21 20 20 19 19 19 19 19 19 19 18 18
25 26 26 26 26 25 25 25 24 23 22 22 22 22 22 22 22 22 22 23 23 24 24 24 24 24 24 23 23 22 22 21 21 20 20 20 20 20 19 19 19 19 19 18
24 25 26 26 26 26 25 23 22 20 20 21 22 22 22 21 22 22 23 24 24 24 24 24 24 24 24 23 23 22 22 22 21 21 20 20 20 20 20 19 19 19 19 19
25 25 25 26 26 25 24 22 21 22 20 21 21 21 21 22 22 22 23 24 24 24 24 24 24 24 24 23 23 22 22 22 21 21 21 20 20 20 20 20 19 19 19 19
23 23 25 25 25 24 23 22 21 22 21 20 20 21 22 22 22 23 23 24 25 24 24 24 24 24 24 24 23 23 22 22 22 21 21 21 20 20 20 19 19 19 19 19
22 23 24 25 25 24 23 21 21 19 20 20 20 20 21 22 22 22 22 23 24 24 24 24 24 24 24 24 24 23 23 22 22 21 21 21 20 20 20 20 19 19 19 19
22 23 24 24 24 24 23 20 18 19 20 21 21 21 21 22 22 21 20 21 23 24 24 24 24 24 25 25 24 24 23 23 22 21 21 21 20 20 20 20 19 19 19 19
21 22 23 23 24 23 22 21 18 17 18 19 20 21 21 21 21 21 20 21 22 23 23 23 24 24 24 24 24 23 23 22 22 21 21 21 20 20 20 20 20 19 19 19
19 18 20 22 22 22 23 21 19 20 19 17 19 20 21 20 20 20 20 21 22 23 23 23 23 23 23 23 23 23 23 22 22 21 21 21 20 20 20 20 19 19 19 19
19 18 20 21 21 22 22 21 19 17 16 16 19 21 20 19 19 20 20 20 21 22 22 22 22 23 22 22 22 22 22 22 21 21 21 20 20 20 20 20 19 19 19 19
19 17 19 21 20 21 22 21 19 18 18 18 18 20 20 19 18 18 19 20 20 21 21 21 21 22 22 22 22 22 21 21 21 21 20 20 20 20 20 20 19 19 19 19
18 18 19 19 20 21 21 21 20 20 19 19 20 19 19 19 18 18 19 19 19 20 20 20 21 21 21 21 21 21 21 21 20 21 21 20 20 19 19 19 19 19 19 19
16 18 19 20 20 20 20 20 20 20 20 19 19 19 18 18 18 18 18 18 18 19 20 20 20 20 20 20 20 20 20 20 20 21 20 20 20 19 19 19 19 19 18 18
15 16 17 18 19 20 19 19 19 19 18 19 19 19 18 17 17 17 18 18 18 19 19 19 20 20 20 20 20 20 20 20 20 20 20 20 19 19 19 18 18 18 18 18
15 14 14 16 18 19 18 18 19 18 18 17 17 17 17 17 17 18 18 18 18 18 19 19 19 19 19 19 19 19 19 19 19 19 19 19 19 19 19 18 18 18 18 17
13 14 14 14 16 17 18 18 18 18 17 17 17 17 16 17 17 17 18 18 18 18 19 19 19 19 19 19 19 19 19 19 19 19 18 18 18 18 18 18 18 18 17 17
12 13 14 14 17 17 17 18 18 18 17 16 16 16 16 16 16 16 17 18 18 18 18 18 18 19 19 19 18 18 18 18 18 18 18 18 17 17 17 17 17 17 17 17
13 13 13 14 15 16 16 16 17 18 17 16 16 16 16 15 16 16 17 17 17 17 17 18 18 18 18 18 18 18 18 17 17 17 17 17 17 17 17 17 17 16 16 16
13 13 13 13 15 15 15 15 16 15 16 16 16 16 16 16 16 16 16 16 16 17 17 17 17 17 17 17 17 17 17 17 16 16 16 16 16 16 16 16 16 16 16 16
12 12 12 13 13 13 14 14 15 15 15 16 16 16 16 15 15 15 16 16 16 16 16 16 16 16 16 16 16 16 16 16 16 16 16 16 16 15 15 15 15 15 15 15
12 11 11 12 12 13 14 15 15 15 15 16 16 16 16 15 15 15 15 15 16 16 16 16 16 16 15 15 15 15 15 15 15 15 15 15 15 15 15 15 15 15 14 14
12 12 11 11 12 13 14 14 15 15 15 15 16 16 15 15 15 15 15 15 15 15 15 15 15 15 14 14 14 14 14 14 14 14 14 14 14 14 14 14 14 14 14 14
10 11 11 12 12 12 13 14 14 14 14 15 15 15 15 15 14 14 14 14 14 14 14 14 14 14 14 14 14 14 14 14 13 13 13 13 13 13 13 13 13 13 13 13
Wind_Speed
3 5 4 8 8 6 6 5 5 6 4 5 7 7 6 10 11 11 11 10 11 12 9 9 10 9 8 8 8 8 8 7 6 3 3 3 2 2 2 3 5 6 7 7
5 3 8 6 5 4 5 3 4 3 1 4 4 5 5 9 13 13 13 13 13 10 8 9 9 10 10 10 10 9 9 8 7 5 4 3 2 2 2 2 3 5 6 6
7 7 4 4 3 3 4 6 6 4 2 3 2 4 4 4 6 8 10 11 11 13 13 12 11 11 11 12 12 12 10 9 8 6 4 3 2 1 1 1 2 3 5 6
6 5 3 3 4 6 5 7 6 5 4 1 2 3 7 4 5 9 11 11 13 13 13 12 13 13 13 14 12 11 10 9 8 8 6 6 5 4 4 3 3 2 4 5
6 4 4 5 7 8 6 1 4 4 4 2 1 3 8 2 6 11 12 13 14 14 14 14 15 15 13 12 11 10 9 9 8 8 8 7 5 4 3 2 3 2 2 3
6 4 5 7 3 5 5 7 8 6 5 0 4 5 7 5 8 8 10 12 13 14 14 13 12 11 10 9 9 9 10 9 9 9 8 8 8 6 4 4 4 3 2 2
4 4 3 3 2 2 6 6 4 4 3 6 3 4 9 9 8 9 10 10 11 12 12 12 12 12 11 11 11 10 11 10 9 9 9 9 8 7 6 5 5 4 3 3
3 6 4 4 7 7 6 10 8 7 6 5 1 6 8 8 6 6 7 6 7 10 12 13 13 13 13 13 12 12 12 11 10 10 9 8 7 6 5 5 5 5 5 5
6 6 5 3 3 8 7 5 7 7 3 1 5 7 9 5 5 5 4 2 5 9 11 12 12 12 13 13 13 13 12 10 10 10 9 7 7 7 7 6 5 4 4 4
8 4 5 3 4 4 5 9 6 7 7 4 5 5 6 6 7 5 3 3 4 5 7 8 9 11 11 12 11 10 10 10 9 9 9 8 8 8 7 6 6 5 5 4
5 5 4 3 3 3 4 5 6 5 5 7 4 7 6 7 6 5 4 3 3 4 7 8 8 8 8 8 8 9 8 8 8 9 8 7 7 7 7 6 7 6 5 5
3 5 2 5 3 2 4 6 7 5 5 5 5 7 4 4 4 3 3 1 1 1 3 6 6 6 7 7 7 7 7 7 7 7 7 7 6 6 6 7 6 6 6 5
3 5 2 5 5 3 2 2 4 6 5 6 5 7 3 2 2 1 1 0 1 3 4 4 6 7 6 6 6 6 6 5 5 6 6 6 6 7 7 7 6 5 6 5
4 4 6 8 7 4 2 1 4 6 4 5 7 6 5 3 2 2 1 1 2 3 4 4 4 5 5 5 5 5 4 4 4 5 5 6 6 7 7 6 6 6 5 5
5 3 3 4 4 3 3 3 4 5 7 8 8 6 7 4 3 1 0 2 3 4 4 3 3 4 3 4 3 4 5 5 5 5 5 5 4 4 4 5 5 5 5 6
4 3 1 1 2 2 1 2 2 3 3 4 3 4 4 1 2 1 1 2 2 2 2 3 4 4 4 3 3 3 3 4 5 5 4 4 3 3 3 4 4 4 5 5
1 3 2 3 3 1 3 4 3 2 2 5 6 6 2 2 2 3 2 2 2 2 3 3 4 4 3 3 3 3 4 4 4 4 3 3 3 4 4 5 4 5 5 5
4 4 3 2 1 5 5 1 3 3 1 1 2 2 3 3 1 0 1 2 1 1 1 2 3 3 3 3 3 2 2 2 2 2 2 1 2 3 4 4 5 5 5 5
5 6 4 3 3 3 4 2 2 3 1 2 2 2 2 3 3 3 2 1 2 1 1 1 2 3 3 3 3 3 1 2 2 1 1 2 2 2 3 4 4 4 4 5
5 4 5 3 4 6 6 4 3 3 2 2 1 2 1 2 1 3 1 1 2 2 2 2 2 3 3 2 3 3 2 2 1 1 1 1 2 2 3 4 4 3 4 5
4 4 3 3 3 5 4 6 1 3 5 2 2 2 3 3 4 2 0 1 2 2 2 2 2 2 1 2 3 2 1 1 2 1 1 1 1 2 3 2 2 3 3 3
3 2 2 3 3 6 4 3 2 4 2 1 1 1 2 2 1 2 2 2 2 2 2 2 3 3 2 2 2 1 2 3 2 1 1 1 1 1 2 2 2 2 3 3
2 4 4 5 5 3 2 2 3 2 1 1 1 0 2 2 1 1 1 1 1 1 1 1 2 2 3 2 2 0 2 2 2 2 2 2 1 1 1 1 2 1 2 3
2 1 2 1 3 3 3 2 2 1 1 1 1 2 2 2 2 1 1 1 1 1 1 1 2 2 2 2 2 1 1 1 0 1 1 2 2 2 2 1 1 1 2 2
3 0 1 2 3 3 3 2 2 2 2 2 1 1 2 3 3 3 2 2 2 1 1 1 1 1 1 1 2 2 2 1 1 1 1 1 1 1 1 1 1 1 2 3
3 4 4 5 5 4 4 4 2 1 2 1 1 1 0 2 3 3 3 3 2 1 1 1 1 1 1 0 1 2 2 1 1 1 2 1 1 1 1 0 1 3 1 1
Wind_Direction
64 88 184 209 196 189 179 185 230 242 206 177 216 241 224 188 192 199 202 203 207 214 208 192 189 187 181 179 179 183 181 180 163 157 165 170 200 203 205 207 204 202 203 197
49 242 223 200 177 157 164 193 238 275 175 171 220 254 232 198 203 204 205 208 210 208 200 195 190 186 186 187 189 189 189 184 180 178 172 166 166 182 196 202 197 201 202 199
191 231 188 154 158 164 196 199 215 208 51 49 90 312 267 238 219 218 217 212 209 205 203 199 193 192 190 194 195 197 193 189 185 173 142 121 105 92 138 182 197 204 203 200
221 241 178 182 207 173 237 222 190 166 128 258 122 258 281 244 241 228 224 215 213 211 203 198 195 195 197 199 195 193 188 187 184 172 170 170 179 194 202 193 198 204 196 195
231 201 177 207 222 178 210 154 138 134 132 84 39 173 282 283 246 241 228 219 215 210 204 200 199 199 198 193 189 189 183 186 184 181 184 183 193 200 186 172 182 201 203 200
237 230 203 209 215 165 137 73 59 54 77 175 229 179 268 240 229 242 233 221 212 206 203 201 197 188 186 181 181 182 184 191 187 187 189 192 194 191 183 192 194 203 208 212
294 279 236 173 132 80 106 96 44 12 16 243 234 191 246 251 239 236 240 229 212 200 196 195 189 184 181 179 183 183 186 194 191 190 196 198 196 190 196 202 203 200 206 214
204 274 242 191 183 186 172 147 165 192 210 253 246 224 250 259 266 266 259 241 206 194 194 196 192 188 185 183 184 184 188 194 190 194 202 199 194 191 200 205 203 205 212 217
182 246 286 239 199 150 143 169 165 140 149 190 266 278 299 280 291 287 285 246 208 199 195 195 187 182 182 183 188 187 186 188 189 195 196 196 193 192 198 199 203 208 213 212
164 220 285 302 72 41 137 141 106 129 152 216 271 267 250 267 268 283 292 272 240 207 194 189 185 184 183 186 182 177 182 188 190 191 198 204 199 197 192 186 201 210 213 209
143 170 291 28 151 190 95 100 110 122 152 161 218 260 233 229 238 244 255 251 242 207 189 181 177 177 171 165 163 168 175 178 186 193 198 200 198 195 188 197 206 209 205 200
123 132 232 262 262 220 160 160 146 154 203 176 179 257 285 237 244 231 241 283 321 165 160 155 149 146 152 152 155 164 169 179 192 194 191 193 190 187 196 208 212 202 203 203
119 111 71 345 344 10 91 134 138 125 121 153 175 256 321 351 333 300 246 6 59 92 103 114 124 130 136 144 153 162 165 174 184 183 188 192 193 194 201 205 201 200 205 205
113 116 168 198 216 218 224 194 154 132 150 193 215 241 297 310 299 314 336 76 86 93 104 112 121 123 138 149 149 151 154 160 168 169 183 196 205 204 203 203 194 201 204 205
95 140 205 233 238 209 214 234 195 188 188 190 220 216 247 246 234 243 100 85 79 78 90 102 113 121 130 130 138 145 148 155 160 165 184 202 207 200 196 198 195 202 207 216
59 133 138 283 256 199 224 280 215 205 198 204 196 246 259 233 109 90 93 98 91 92 108 110 120 134 142 146 145 140 150 163 165 173 192 194 183 192 202 203 192 192 204 208
70 127 126 240 284 39 267 253 206 189 219 188 202 225 192 138 167 196 194 153 146 145 139 137 138 151 153 148 150 159 170 166 165 166 175 186 185 192 203 210 198 196 201 195
158 138 146 188 124 217 236 248 165 154 285 236 201 210 181 177 176 261 167 139 126 111 123 131 128 119 130 134 136 157 151 144 149 148 170 193 210 206 203 205 203 199 198 199
169 150 137 145 184 251 281 267 177 162 283 296 180 166 117 105 68 14 11 108 142 153 141 125 121 119 119 126 128 121 121 119 119 146 199 209 204 217 221 218 215 207 209 215
66 105 126 138 165 216 244 295 298 128 267 299 147 166 155 100 120 256 311 67 67 60 60 63 71 96 105 112 119 121 132 132 157 206 233 234 219 207 221 222 220 213 215 220
35 40 112 160 202 246 275 303 337 180 233 262 190 186 169 186 207 214 128 78 92 91 87 86 88 87 87 86 100 102 78 272 260 241 224 221 227 218 219 225 219 212 210 214
168 150 168 151 186 245 319 7 168 227 269 247 196 179 155 161 117 112 100 87 78 69 58 61 73 58 39 56 92 79 292 286 300 299 279 262 235 222 208 198 221 212 198 210
190 193 187 189 212 251 295 260 287 266 251 255 181 147 129 129 138 147 131 120 96 73 54 65 92 70 27 28 73 190 282 297 319 339 329 328 341 316 267 224 222 220 210 219
288 120 140 264 276 290 307 309 313 302 247 239 154 134 139 162 184 186 185 179 164 112 77 75 85 73 21 5 20 302 292 292 296 325 319 331 334 323 330 314 261 237 239 232
245 157 123 265 269 310 317 311 313 346 4 34 68 131 168 178 207 212 215 222 218 200 179 138 142 166 252 338 348 330 341 21 18 319 301 314 309 287 309 337 326 258 250 226
220 198 194 229 230 214 258 277 305 316 312 323 38 25 27 191 227 235 227 234 230 217 211 185 186 207 238 264 336 334 346 23 56 345 332 324 315 297 254 213 7 14 328 21
Height
1472 1480 1487 1484 1482 1483 1488 1493 1496 1491 1484 1488 1491 1490 1488 1488 1490 1492 1494 1495 1496 1498 1501 1504 1506 1509 1512 1514 1516 1518 1520 1522 1524 1526 1527 1529 1530 1532 1534 1535 1537 1538 1540 1541
1479 1482 1475 1475 1477 1481 1486 1493 1494 1488 1483 1487 1491 1490 1485 1486 1486 1487 1489 1490 1492 1495 1499 1501 1504 1506 1509 1512 1514 1516 1519 1521 1522 1524 1526 1528 1530 1531 1533 1534 1536 1537 1539 1540
1478 1475 1470 1473 1478 1483 1486 1490 1490 1491 1487 1487 1491 1495 1488 1484 1485 1486 1486 1487 1489 1491 1494 1497 1500 1503 1506 1509 1511 1514 1516 1519 1521 1523 1525 1527 1528 1530 1531 1532 1534 1536 1537 1538
1473 1469 1470 1473 1477 1479 1488 1479 1481 1487 1496 1504 1497 1513 1493 1486 1484 1482 1482 1483 1485 1487 1490 1493 1496 1499 1502 1505 1509 1512 1514 1517 1519 1521 1523 1525 1526 1527 1529 1531 1533 1534 1536 1537
1472 1467 1469 1473 1471 1472 1478 1474 1480 1486 1496 1505 1502 1510 1500 1487 1486 1480 1477 1477 1479 1482 1485 1488 1491 1494 1498 1502 1506 1509 1512 1514 1517 1519 1521 1523 1524 1526 1528 1529 1531 1533 1534 1535
1466 1463 1463 1465 1464 1466 1471 1480 1488 1496 1504 1517 1506 1511 1505 1490 1481 1474 1471 1471 1473 1475 1479 1483 1488 1491 1495 1499 1503 1506 1509 1512 1515 1517 1519 1521 1522 1524 1526 1527 1529 1531 1532 1533
1471 1464 1460 1460 1467 1468 1473 1493 1514 1516 1525 1521 1504 1506 1499 1476 1470 1468 1466 1466 1468 1471 1475 1479 1483 1487 1491 1495 1499 1503 1506 1509 1512 1514 1516 1518 1520 1522 1524 1526 1528 1529 1530 1531
1481 1481 1462 1459 1463 1471 1475 1485 1511 1522 1525 1518 1506 1506 1486 1468 1465 1464 1463 1463 1465 1467 1470 1473 1477 1482 1486 1490 1495 1499 1502 1505 1509 1512 1514 1516 1518 1520 1522 1524 1526 1527 1528 1529
1481 1479 1459 1456 1456 1462 1476 1484 1484 1505 1512 1517 1511 1498 1480 1466 1464 1463 1462 1461 1461 1463 1466 1469 1473 1478 1482 1486 1490 1494 1498 1502 1506 1509 1511 1514 1515 1518 1520 1522 1523 1524 1526 1527
1467 1476 1464 1458 1457 1461 1465 1476 1493 1505 1519 1521 1509 1501 1491 1472 1467 1463 1462 1461 1460 1461 1464 1467 1470 1474 1478 1482 1487 1492 1496 1500 1503 1506 1508 1511 1513 1514 1517 1519 1520 1522 1523 1524
1463 1474 1470 1464 1467 1471 1472 1479 1489 1501 1503 1516 1518 1503 1471 1468 1464 1463 1461 1460 1460 1461 1462 1465 1468 1472 1476 1481 1485 1489 1493 1497 1500 1503 1505 1508 1510 1511 1513 1515 1516 1518 1520 1521
1465 1475 1481 1472 1462 1461 1464 1472 1483 1495 1501 1506 1508 1497 1463 1463 1461 1460 1460 1460 1459 1460 1462 1465 1467 1471 1475 1479 1483 1487 1490 1493 1497 1500 1502 1504 1506 1508 1510 1511 1513 1515 1516 1517
1465 1476 1488 1484 1477 1468 1468 1470 1475 1485 1497 1506 1506 1490 1463 1462 1461 1460 1460 1460 1459 1460 1462 1464 1467 1470 1474 1477 1480 1484 1486 1490 1494 1497 1499 1501 1503 1504 1506 1507 1509 1511 1512 1513
1460 1475 1482 1487 1481 1472 1470 1470 1473 1480 1493 1498 1492 1480 1467 1464 1462 1461 1460 1460 1460 1461 1463 1465 1467 1468 1472 1475 1478 1481 1484 1487 1491 1493 1496 1497 1499 1501 1502 1504 1504 1507 1508 1509
1461 1473 1472 1471 1467 1467 1468 1468 1469 1472 1475 1482 1477 1476 1467 1463 1462 1461 1461 1460 1461 1462 1463 1465 1468 1469 1471 1474 1476 1479 1481 1484 1487 1490 1492 1493 1495 1498 1499 1500 1501 1503 1503 1504
1464 1471 1471 1471 1466 1466 1468 1467 1467 1467 1468 1470 1470 1471 1463 1462 1461 1461 1461 1462 1462 1462 1463 1465 1467 1468 1470 1472 1475 1478 1480 1482 1484 1486 1488 1489 1491 1493 1495 1496 1497 1498 1499 1501
1469 1472 1477 1479 1471 1468 1476 1469 1467 1467 1465 1466 1469 1466 1461 1462 1461 1461 1461 1461 1461 1462 1463 1464 1466 1468 1469 1471 1474 1476 1478 1480 1481 1482 1484 1485 1487 1488 1490 1492 1493 1494 1495 1496
1468 1474 1480 1482 1477 1484 1474 1462 1462 1463 1463 1462 1462 1461 1460 1460 1461 1461 1461 1461 1462 1463 1464 1464 1465 1467 1469 1471 1473 1475 1476 1477 1478 1478 1480 1482 1483 1483 1485 1487 1488 1489 1490 1491
1462 1470 1481 1486 1485 1479 1469 1462 1462 1464 1466 1461 1461 1460 1460 1460 1460 1461 1462 1462 1463 1463 1464 1465 1466 1467 1468 1470 1471 1473 1474 1473 1475 1476 1477 1479 1479 1479 1481 1482 1483 1484 1486 1487
1463 1466 1477 1483 1483 1484 1471 1460 1458 1461 1467 1461 1460 1460 1460 1461 1465 1464 1462 1462 1462 1464 1465 1465 1466 1466 1467 1469 1470 1470 1471 1471 1471 1472 1474 1475 1476 1476 1477 1478 1479 1480 1482 1482
1471 1474 1477 1481 1481 1475 1465 1460 1459 1471 1468 1461 1459 1459 1459 1461 1462 1462 1461 1462 1462 1463 1464 1465 1466 1466 1467 1467 1468 1468 1469 1469 1469 1470 1472 1472 1473 1473 1473 1473 1475 1476 1477 1478
1474 1476 1478 1481 1481 1478 1463 1461 1464 1464 1460 1459 1458 1458 1459 1459 1460 1460 1460 1461 1461 1461 1463 1464 1465 1465 1467 1467 1466 1466 1468 1468 1468 1469 1469 1470 1470 1470 1470 1470 1471 1472 1472 1472
1471 1471 1472 1473 1473 1466 1463 1463 1462 1461 1460 1459 1459 1459 1459 1460 1460 1460 1460 1461 1461 1462 1463 1464 1464 1464 1465 1465 1466 1465 1465 1467 1466 1466 1466 1466 1466 1467 1467 1467 1467 1467 1468 1469
1468 1467 1469 1470 1466 1464 1462 1461 1461 1460 1460 1459 1459 1459 1460 1460 1460 1461 1461 1461 1461 1461 1462 1462 1462 1462 1463 1464 1464 1464 1464 1464 1464 1464 1463 1463 1463 1463 1464 1464 1464 1464 1464 1465
1467 1467 1468 1468 1465 1463 1461 1461 1461 1461 1460 1459 1458 1459 1459 1459 1459 1459 1460 1460 1460 1460 1461 1461 1461 1461 1461 1462 1462 1462 1461 1461 1461 1461 1461 1460 1461 1461 1461 1461 1461 1461 1461 1462
1465 1465 1466 1466 1462 1462 1461 1460 1460 1460 1460 1459 1458 1458 1458 1458 1458 1458 1458 1459 1459 1459 1459 1459 1459 1460 1459 1459 1459 1459 1459 1459 1459 1458 1458 1458 1458 1458 1458 1457 1457 1457 1458 1457